User: anonymous   Login
Location: ???? ?????
(30.0052°N, 31.2891°E)
Time: 23:52:21
(UTC+00:00)
Language:

PSLV DEB - Orbit

View from above orbital plane
View from above orbital plane
View from above satellite
View from above satellite

Ground track
Ground track

The orbit data is extracted from the following two-line orbital elements,

1 28852U 01049PE  23029.25092661  .00001182  00000-0  18664-3 0  9996
2 28852  98.3046  22.7818 0043164 314.5984  57.6603 14.73760598516613
Epoch (UTC): 29 January 2023 06:01:20
Eccentricity: 0.0043164
inclination: 98.3046°
perigee height: 619 km
apogee height: 679 km
right ascension of ascending node: 22.7818°
argument of perigee: 314.5984°
revolutions per day: 14.73760598
mean anomaly at epoch: 57.6603°
orbit number at epoch: 51661

The dashed part of the orbit path shows where the satellite is in the earth's shadow,  

DLR